NDF5517 KMIA-ESSA

Flight info

Callsign NDF5517
Flight time N/A
Altitude 35000
Route FOLZZ3 ALYRA DCT CARPX Y323 WEAKK Y494 WHOOS/M082F350 Y494 VIRST M201 CARAC/N0478F350 N57B NANSO/N0474F370 DCT SUPRY/M083F370 NATY ELSOX/N0476F390 DCT KORAK DCT NELBO DCT MADAD DCT ODMIX DCT UNBUD DCT VAVET DCT VATEX P609 KSD DCT ELTOK ELTOK8P
Aircraft B77W/H-SDE1E2E3FGHIJ2J3J4J5M1RWXY/LB1D1

Departure

Time N/A
Airport Miami International Airport (KMIA)

Arrival

Time 2026-05-04 04:59
Airport Stockholm-Arlanda Airport (ESSA)
Time Latitude Longitude Altitude Speed Heading
2026-05-04 02:36 51.99930 -11.59100 35088 ft 419 kts 56°
2026-05-04 02:37 52.03071 -11.51151 35087 ft 420 kts 56°
2026-05-04 02:37 52.06259 -11.43060 35362 ft 431 kts 56°
2026-05-04 02:38 52.07889 -11.38915 35630 ft 434 kts 56°
2026-05-04 02:38 52.09522 -11.34752 35931 ft 436 kts 56°
2026-05-04 02:38 52.11142 -11.30617 36202 ft 438 kts 56°
2026-05-04 02:38 52.12771 -11.26450 36459 ft 441 kts 56°
2026-05-04 02:39 52.14427 -11.22208 36703 ft 443 kts 56°
2026-05-04 02:39 52.16091 -11.17938 36974 ft 446 kts 56°
2026-05-04 02:39 52.17743 -11.13693 37233 ft 448 kts 56°
2026-05-04 02:39 52.19422 -11.09370 37489 ft 450 kts 57°
2026-05-04 02:40 52.21095 -11.05055 37734 ft 453 kts 57°
2026-05-04 02:40 52.22764 -11.00745 38006 ft 454 kts 57°
2026-05-04 02:40 52.24463 -10.96348 38315 ft 455 kts 57°
2026-05-04 02:40 52.26157 -10.91957 38567 ft 458 kts 57°
2026-05-04 02:41 52.27845 -10.87573 38781 ft 460 kts 57°
2026-05-04 02:41 52.29553 -10.83132 38969 ft 461 kts 57°
2026-05-04 02:41 52.32978 -10.74203 39042 ft 466 kts 57°
2026-05-04 02:42 52.36436 -10.65151 39059 ft 469 kts 57°
2026-05-04 02:42 52.39879 -10.56106 39067 ft 469 kts 57°
2026-05-04 02:43 52.43323 -10.47029 39065 ft 469 kts 57°
2026-05-04 02:43 52.46753 -10.37956 39066 ft 469 kts 57°
2026-05-04 02:44 52.49036 -10.31899 39069 ft 470 kts 57°
2026-05-04 02:44 52.50752 -10.27338 39069 ft 470 kts 57°
2026-05-04 02:45 52.54166 -10.18234 39053 ft 465 kts 57°
2026-05-04 02:45 52.57516 -10.09271 39057 ft 461 kts 58°
2026-05-04 02:46 52.60311 -10.01770 39063 ft 460 kts 58°
2026-05-04 02:46 52.63642 -9.92800 39060 ft 461 kts 58°
2026-05-04 02:47 52.66978 -9.83785 39062 ft 462 kts 58°
2026-05-04 02:47 52.70864 -9.73242 39061 ft 463 kts 58°
2026-05-04 02:48 52.73654 -9.65647 39059 ft 464 kts 58°
2026-05-04 02:48 52.76992 -9.56526 39059 ft 465 kts 58°
2026-05-04 02:49 52.80319 -9.47404 39057 ft 465 kts 58°
2026-05-04 02:49 52.83646 -9.38249 39056 ft 466 kts 58°
2026-05-04 02:50 52.86988 -9.29017 39054 ft 466 kts 58°
2026-05-04 02:50 52.90302 -9.19831 39052 ft 466 kts 58°
2026-05-04 02:51 52.93634 -9.10559 39058 ft 466 kts 58°
2026-05-04 02:51 52.96950 -9.01301 39051 ft 466 kts 58°
2026-05-04 02:52 53.00234 -8.92094 39052 ft 466 kts 59°
2026-05-04 02:52 53.03521 -8.82846 39054 ft 465 kts 59°
2026-05-04 02:53 53.06801 -8.73584 39051 ft 465 kts 59°
2026-05-04 02:53 53.10094 -8.64250 39058 ft 465 kts 59°
2026-05-04 02:54 53.13362 -8.54953 39053 ft 466 kts 59°
2026-05-04 02:54 53.16622 -8.45644 39053 ft 466 kts 59°
2026-05-04 02:55 53.21486 -8.31686 39049 ft 466 kts 59°
2026-05-04 02:56 53.24743 -8.22299 39052 ft 466 kts 59°
2026-05-04 02:56 53.27970 -8.12959 39051 ft 467 kts 59°
2026-05-04 02:57 53.31224 -8.03507 39052 ft 467 kts 59°
2026-05-04 02:57 53.34437 -7.94140 39051 ft 467 kts 59°
2026-05-04 02:58 53.37668 -7.84687 39050 ft 467 kts 59°
2026-05-04 02:58 53.41145 -7.75506 39047 ft 467 kts 52°
2026-05-04 02:59 53.45111 -7.66914 39046 ft 467 kts 51°
2026-05-04 02:59 53.49134 -7.58296 39051 ft 467 kts 51°
2026-05-04 03:00 53.53104 -7.49684 39047 ft 467 kts 52°
2026-05-04 03:00 53.57053 -7.41029 39043 ft 468 kts 52°
2026-05-04 03:01 53.61002 -7.32331 39048 ft 468 kts 52°
2026-05-04 03:01 53.64949 -7.23606 39051 ft 468 kts 52°
2026-05-04 03:02 53.68886 -7.14876 39046 ft 468 kts 52°
2026-05-04 03:02 53.72815 -7.06137 39044 ft 469 kts 52°
2026-05-04 03:03 53.76727 -6.97403 39046 ft 469 kts 52°
2026-05-04 03:03 53.80653 -6.88607 39044 ft 469 kts 52°
2026-05-04 03:04 53.84575 -6.79789 39042 ft 470 kts 52°
2026-05-04 03:04 53.88519 -6.70890 39045 ft 470 kts 52°
2026-05-04 03:05 53.92437 -6.62019 39048 ft 470 kts 52°
2026-05-04 03:05 53.96263 -6.53326 39048 ft 470 kts 52°
2026-05-04 03:06 54.00155 -6.44450 39058 ft 470 kts 52°
2026-05-04 03:06 54.04055 -6.35527 39057 ft 470 kts 52°
2026-05-04 03:07 54.07967 -6.26543 39060 ft 470 kts 52°
2026-05-04 03:07 54.11835 -6.17627 39063 ft 470 kts 52°
2026-05-04 03:08 54.15710 -6.08664 39062 ft 471 kts 53°
2026-05-04 03:08 54.19616 -5.99599 39066 ft 471 kts 53°
2026-05-04 03:09 54.23487 -5.90578 39043 ft 472 kts 53°
2026-05-04 03:09 54.27340 -5.81570 39060 ft 472 kts 53°
2026-05-04 03:10 54.31235 -5.72428 39061 ft 472 kts 53°
2026-05-04 03:10 54.35084 -5.63361 39057 ft 472 kts 53°
2026-05-04 03:11 54.38923 -5.54285 39044 ft 473 kts 53°
2026-05-04 03:11 54.42790 -5.45109 39063 ft 473 kts 53°
2026-05-04 03:12 54.46615 -5.36002 39042 ft 473 kts 53°
2026-05-04 03:12 54.50481 -5.26793 39046 ft 473 kts 53°
2026-05-04 03:13 54.54372 -5.17672 39051 ft 473 kts 53°
2026-05-04 03:13 54.58253 -5.08583 39051 ft 473 kts 53°
2026-05-04 03:14 54.62158 -4.99388 39048 ft 473 kts 53°
2026-05-04 03:14 54.66018 -4.90247 39046 ft 474 kts 53°
2026-05-04 03:15 54.69907 -4.80996 39043 ft 474 kts 53°
2026-05-04 03:15 54.73781 -4.71749 39042 ft 475 kts 53°
2026-05-04 03:16 54.77646 -4.62491 39043 ft 475 kts 53°
2026-05-04 03:16 54.81487 -4.53253 39038 ft 476 kts 53°
2026-05-04 03:17 54.85348 -4.43934 39044 ft 476 kts 53°
2026-05-04 03:17 54.89221 -4.34551 39037 ft 476 kts 53°
2026-05-04 03:18 54.93064 -4.25204 39036 ft 477 kts 53°
2026-05-04 03:18 54.96929 -4.15769 39040 ft 477 kts 53°
2026-05-04 03:19 55.00775 -4.06347 39041 ft 478 kts 53°
2026-05-04 03:19 55.04529 -3.97110 39040 ft 478 kts 53°
2026-05-04 03:20 55.08345 -3.87687 39036 ft 479 kts 53°
2026-05-04 03:20 55.12189 -3.78160 39041 ft 479 kts 54°
2026-05-04 03:21 55.16038 -3.68583 39039 ft 480 kts 54°
2026-05-04 03:21 55.19858 -3.59042 39038 ft 480 kts 54°
2026-05-04 03:22 55.23660 -3.49507 39039 ft 480 kts 54°
2026-05-04 03:22 55.27477 -3.39900 39041 ft 481 kts 54°
2026-05-04 03:23 55.31299 -3.30242 39041 ft 481 kts 54°
2026-05-04 03:23 55.35101 -3.20594 39037 ft 482 kts 54°
2026-05-04 03:24 55.38908 -3.10897 39044 ft 482 kts 54°
2026-05-04 03:24 55.42711 -3.01172 39038 ft 482 kts 54°
2026-05-04 03:25 55.46495 -2.91460 39036 ft 483 kts 54°
2026-05-04 03:25 55.50300 -2.81652 39039 ft 483 kts 54°
2026-05-04 03:26 55.54058 -2.71926 39040 ft 483 kts 54°
2026-05-04 03:26 55.57853 -2.62067 39039 ft 484 kts 54°
2026-05-04 03:27 55.61626 -2.52226 39039 ft 484 kts 54°
2026-05-04 03:27 55.65391 -2.42363 39037 ft 485 kts 54°
2026-05-04 03:28 55.69144 -2.32493 39038 ft 485 kts 54°
2026-05-04 03:28 55.72909 -2.22553 39035 ft 485 kts 54°
2026-05-04 03:29 55.76663 -2.12601 39033 ft 486 kts 54°
2026-05-04 03:29 55.80417 -2.02608 39033 ft 486 kts 55°
2026-05-04 03:30 55.84163 -1.92596 39032 ft 487 kts 55°
2026-05-04 03:30 55.87898 -1.82571 39037 ft 487 kts 55°
2026-05-04 03:31 55.91632 -1.72508 39033 ft 488 kts 55°
2026-05-04 03:31 55.95282 -1.62260 39036 ft 488 kts 57°
2026-05-04 03:32 55.98858 -1.51957 39033 ft 489 kts 57°
2026-05-04 03:32 56.02445 -1.41606 39033 ft 490 kts 57°
2026-05-04 03:33 56.06028 -1.31273 39030 ft 490 kts 57°
2026-05-04 03:33 56.09624 -1.20879 39031 ft 491 kts 57°
2026-05-04 03:34 56.13198 -1.10503 39029 ft 491 kts 57°
2026-05-04 03:34 56.16769 -1.00092 39031 ft 492 kts 57°
2026-05-04 03:35 56.20344 -0.89621 39029 ft 492 kts 57°
2026-05-04 03:35 56.23932 -0.79062 39027 ft 493 kts 57°
2026-05-04 03:36 56.27491 -0.68548 39029 ft 493 kts 57°
2026-05-04 03:36 56.31045 -0.57999 39031 ft 494 kts 57°
2026-05-04 03:37 56.34586 -0.47443 39018 ft 494 kts 57°
2026-05-04 03:37 56.38131 -0.36828 39019 ft 495 kts 57°
2026-05-04 03:38 56.41676 -0.26170 39018 ft 495 kts 57°
2026-05-04 03:38 56.45213 -0.15485 39023 ft 496 kts 57°
2026-05-04 03:39 56.48745 -0.04768 39022 ft 497 kts 57°
2026-05-04 03:39 56.52213 0.05803 39019 ft 497 kts 58°
2026-05-04 03:40 56.55729 0.16565 39017 ft 497 kts 58°
2026-05-04 03:40 56.59238 0.27356 39016 ft 498 kts 58°
2026-05-04 03:41 56.62748 0.38200 39016 ft 499 kts 58°
2026-05-04 03:41 56.66247 0.49058 39016 ft 499 kts 58°
2026-05-04 03:42 56.69734 0.59930 39013 ft 500 kts 58°
2026-05-04 03:42 56.73229 0.70875 39013 ft 500 kts 58°
2026-05-04 03:43 56.76716 0.81846 39010 ft 501 kts 58°
2026-05-04 03:43 56.80211 0.92893 39011 ft 501 kts 58°
2026-05-04 03:44 56.83675 1.03893 39008 ft 502 kts 58°
2026-05-04 03:44 56.87143 1.14959 39005 ft 502 kts 58°
2026-05-04 03:45 56.90597 1.26032 39005 ft 502 kts 59°
2026-05-04 03:45 56.94046 1.37140 39006 ft 503 kts 59°
2026-05-04 03:46 56.97491 1.48268 39002 ft 503 kts 58°
2026-05-04 03:46 57.01123 1.59268 39000 ft 503 kts 56°
2026-05-04 03:47 57.04835 1.70133 38994 ft 503 kts 56°
2026-05-04 03:47 57.08517 1.81022 38992 ft 504 kts 57°
2026-05-04 03:48 57.12181 1.92013 38992 ft 504 kts 57°
2026-05-04 03:48 57.15821 2.03027 38988 ft 505 kts 57°
2026-05-04 03:49 57.19459 2.14085 38980 ft 505 kts 57°
2026-05-04 03:49 57.23111 2.25228 38975 ft 506 kts 57°
2026-05-04 03:50 57.26736 2.36339 38972 ft 506 kts 57°
2026-05-04 03:50 57.30344 2.47449 38966 ft 507 kts 57°
2026-05-04 03:51 57.33366 2.56796 38964 ft 507 kts 57°
2026-05-04 03:51 57.36976 2.68009 38960 ft 508 kts 57°
2026-05-04 03:52 57.40582 2.79261 38963 ft 508 kts 58°
2026-05-04 03:52 57.44191 2.90580 38971 ft 508 kts 58°
2026-05-04 03:53 57.47765 3.01840 38970 ft 509 kts 58°
2026-05-04 03:53 57.51344 3.13170 38967 ft 509 kts 58°
2026-05-04 03:54 57.54910 3.24515 38968 ft 509 kts 58°
2026-05-04 03:54 57.58484 3.35941 38966 ft 510 kts 58°
2026-05-04 03:55 57.62053 3.47405 38970 ft 510 kts 58°
2026-05-04 03:55 57.65595 3.58837 38963 ft 510 kts 58°
2026-05-04 03:56 57.69137 3.70326 38958 ft 511 kts 58°
2026-05-04 03:56 57.72589 3.81577 38953 ft 511 kts 58°
2026-05-04 03:57 57.76113 3.93121 38952 ft 511 kts 59°
2026-05-04 03:57 57.79637 4.04718 38954 ft 512 kts 59°
2026-05-04 03:58 57.84874 4.22064 38945 ft 512 kts 59°
2026-05-04 03:58 57.88368 4.33708 38943 ft 512 kts 59°
2026-05-04 03:59 57.91874 4.45449 38940 ft 513 kts 59°
2026-05-04 03:59 57.95337 4.57107 38939 ft 513 kts 59°
2026-05-04 04:00 57.98560 4.69135 38940 ft 514 kts 66°
2026-05-04 04:00 58.01200 4.81607 38932 ft 515 kts 68°
2026-05-04 04:01 58.03895 4.94185 38932 ft 515 kts 66°
2026-05-04 04:01 58.06665 5.06595 38930 ft 516 kts 66°
2026-05-04 04:02 58.09453 5.19103 38915 ft 516 kts 66°
2026-05-04 04:02 58.12179 5.31593 38910 ft 516 kts 67°
2026-05-04 04:03 58.14885 5.44186 38914 ft 516 kts 67°
2026-05-04 04:03 58.17583 5.56814 38911 ft 516 kts 67°
2026-05-04 04:04 58.20274 5.69460 38903 ft 517 kts 67°
2026-05-04 04:04 58.22938 5.82044 38893 ft 517 kts 67°
2026-05-04 04:05 58.25610 5.94746 38888 ft 517 kts 68°
2026-05-04 04:05 58.28264 6.07441 38882 ft 517 kts 68°
2026-05-04 04:06 58.30908 6.20172 38876 ft 517 kts 68°
2026-05-04 04:06 58.33523 6.32837 38875 ft 517 kts 68°
2026-05-04 04:07 58.36093 6.45367 38866 ft 517 kts 68°
2026-05-04 04:07 58.38677 6.58042 38858 ft 517 kts 68°
2026-05-04 04:08 58.41275 6.70868 38855 ft 517 kts 68°
2026-05-04 04:08 58.43842 6.83625 38855 ft 517 kts 69°
2026-05-04 04:09 58.46411 6.96470 38850 ft 518 kts 69°
2026-05-04 04:09 58.48966 7.09329 38844 ft 518 kts 69°
2026-05-04 04:10 58.51521 7.22270 38844 ft 518 kts 69°
2026-05-04 04:10 58.54056 7.35194 38822 ft 518 kts 69°
2026-05-04 04:11 58.56570 7.48100 38823 ft 518 kts 69°
2026-05-04 04:11 58.59078 7.61056 38827 ft 518 kts 69°
2026-05-04 04:12 58.61555 7.73939 38821 ft 518 kts 69°
2026-05-04 04:12 58.64050 7.87004 38817 ft 518 kts 70°
2026-05-04 04:13 58.66516 8.00003 38811 ft 519 kts 70°
2026-05-04 04:13 58.68968 8.13016 38812 ft 519 kts 70°
2026-05-04 04:14 58.71409 8.26058 38807 ft 519 kts 70°
2026-05-04 04:14 58.73835 8.39113 38799 ft 519 kts 70°
2026-05-04 04:15 58.76194 8.51885 38787 ft 519 kts 70°
2026-05-04 04:15 58.78602 8.65008 38781 ft 519 kts 70°
2026-05-04 04:16 58.80994 8.78144 38785 ft 519 kts 70°
2026-05-04 04:16 58.83370 8.91288 38772 ft 519 kts 71°
2026-05-04 04:17 58.85726 9.04407 38768 ft 519 kts 71°
2026-05-04 04:17 58.88085 9.17639 38763 ft 520 kts 71°
2026-05-04 04:18 58.90428 9.30871 38764 ft 520 kts 71°
2026-05-04 04:18 58.92752 9.44088 38762 ft 520 kts 71°
2026-05-04 04:19 58.95069 9.57362 38761 ft 520 kts 71°
2026-05-04 04:19 58.97361 9.70593 38757 ft 520 kts 71°
2026-05-04 04:20 58.99644 9.83859 38752 ft 520 kts 71°
2026-05-04 04:20 59.01914 9.97153 38749 ft 520 kts 71°
2026-05-04 04:21 59.04172 10.10472 38751 ft 519 kts 72°
2026-05-04 04:21 59.06414 10.23794 38747 ft 520 kts 72°
2026-05-04 04:22 59.08645 10.37149 38749 ft 520 kts 72°
2026-05-04 04:22 59.10862 10.50521 38748 ft 520 kts 72°
2026-05-04 04:23 59.13067 10.63920 38911 ft 520 kts 72°
2026-05-04 04:23 59.15254 10.77310 38943 ft 520 kts 72°
2026-05-04 04:24 59.17432 10.90746 38954 ft 520 kts 72°
2026-05-04 04:24 59.19588 11.04149 38925 ft 520 kts 72°
2026-05-04 04:25 59.21735 11.17600 38886 ft 520 kts 72°
2026-05-04 04:25 59.23868 11.31067 38829 ft 520 kts 73°
2026-05-04 04:26 59.26005 11.44668 38772 ft 520 kts 73°
2026-05-04 04:26 59.28110 11.58170 38746 ft 520 kts 73°
2026-05-04 04:27 59.30205 11.71701 38749 ft 520 kts 73°
2026-05-04 04:27 59.32134 11.85342 38751 ft 520 kts 79°
2026-05-04 04:28 59.33231 11.99280 38744 ft 520 kts 82°
2026-05-04 04:28 59.34381 12.13250 38746 ft 520 kts 81°
2026-05-04 04:29 59.35605 12.27235 38742 ft 521 kts 81°
2026-05-04 04:29 59.36808 12.41207 38638 ft 523 kts 81°
2026-05-04 04:30 59.37406 12.48306 38412 ft 524 kts 81°
2026-05-04 04:30 59.37989 12.55313 38143 ft 524 kts 81°
2026-05-04 04:30 59.38569 12.62343 37853 ft 523 kts 81°
2026-05-04 04:30 59.39147 12.69400 37589 ft 521 kts 82°
2026-05-04 04:31 59.39713 12.76361 37323 ft 519 kts 82°
2026-05-04 04:31 59.40280 12.83371 37055 ft 518 kts 82°
2026-05-04 04:31 59.40840 12.90328 36787 ft 516 kts 82°
2026-05-04 04:31 59.41391 12.97233 36525 ft 515 kts 82°
2026-05-04 04:32 59.41943 13.04202 36261 ft 514 kts 82°
2026-05-04 04:32 59.42490 13.11152 36001 ft 512 kts 82°
2026-05-04 04:32 59.43025 13.17984 35748 ft 510 kts 82°
2026-05-04 04:32 59.43562 13.24884 35497 ft 509 kts 83°
2026-05-04 04:33 59.44091 13.31703 35243 ft 506 kts 82°
2026-05-04 04:33 59.44763 13.38508 34944 ft 503 kts 78°
2026-05-04 04:33 59.45535 13.45165 34574 ft 502 kts 77°
2026-05-04 04:33 59.46345 13.51876 34190 ft 502 kts 77°
2026-05-04 04:34 59.47152 13.58498 33816 ft 501 kts 77°
2026-05-04 04:34 59.47961 13.65189 33431 ft 499 kts 78°
2026-05-04 04:34 59.48745 13.71765 33101 ft 496 kts 78°
2026-05-04 04:34 59.49522 13.78383 32791 ft 493 kts 78°
2026-05-04 04:35 59.50277 13.84881 32477 ft 490 kts 78°
2026-05-04 04:35 59.51030 13.91429 32152 ft 487 kts 79°
2026-05-04 04:35 59.51771 13.97914 31831 ft 484 kts 79°
2026-05-04 04:35 59.52509 14.04403 31513 ft 482 kts 79°
2026-05-04 04:36 59.53230 14.10767 31196 ft 480 kts 79°
2026-05-04 04:36 59.53956 14.17209 30890 ft 477 kts 79°
2026-05-04 04:36 59.54671 14.23569 30513 ft 472 kts 79°
2026-05-04 04:36 59.55371 14.29831 30117 ft 469 kts 80°
2026-05-04 04:37 59.57431 14.48434 28787 ft 459 kts 80°
2026-05-04 04:37 59.58104 14.54572 28372 ft 455 kts 79°
2026-05-04 04:38 59.58772 14.60690 27954 ft 451 kts 79°
2026-05-04 04:38 59.59422 14.66672 27535 ft 448 kts 79°
2026-05-04 04:38 59.60075 14.72708 27105 ft 445 kts 79°
2026-05-04 04:38 59.60712 14.78629 26715 ft 442 kts 79°
2026-05-04 04:39 59.61352 14.84593 26295 ft 440 kts 79°
2026-05-04 04:39 59.61975 14.90428 25903 ft 437 kts 79°
2026-05-04 04:39 59.62599 14.96308 25490 ft 435 kts 79°
2026-05-04 04:39 59.63212 15.02110 25093 ft 433 kts 79°
2026-05-04 04:40 59.63827 15.07945 24697 ft 431 kts 79°
2026-05-04 04:40 59.64429 15.13685 24301 ft 429 kts 79°
2026-05-04 04:40 59.65035 15.19504 23900 ft 427 kts 79°
2026-05-04 04:40 59.65627 15.25203 23509 ft 426 kts 79°
2026-05-04 04:41 59.66222 15.30952 23067 ft 425 kts 79°
2026-05-04 04:41 59.66807 15.36642 22610 ft 423 kts 79°
2026-05-04 04:41 59.67392 15.42360 22183 ft 421 kts 79°
2026-05-04 04:41 59.67966 15.47980 21791 ft 418 kts 79°
2026-05-04 04:42 59.68542 15.53653 21370 ft 416 kts 79°
2026-05-04 04:42 59.69101 15.59193 20981 ft 413 kts 79°
2026-05-04 04:42 59.69662 15.64768 20572 ft 411 kts 79°
2026-05-04 04:42 59.70219 15.70330 20179 ft 409 kts 79°
2026-05-04 04:43 59.70763 15.75793 19785 ft 407 kts 79°
2026-05-04 04:43 59.71311 15.81318 19380 ft 406 kts 79°
2026-05-04 04:43 59.71850 15.86771 18979 ft 404 kts 79°
2026-05-04 04:43 59.72389 15.92255 18575 ft 403 kts 79°
2026-05-04 04:44 59.72922 15.97700 18178 ft 402 kts 79°
2026-05-04 04:44 59.73445 16.03058 17769 ft 399 kts 79°
2026-05-04 04:44 59.73969 16.08463 17324 ft 396 kts 79°
2026-05-04 04:44 59.74487 16.13830 16855 ft 394 kts 79°
2026-05-04 04:45 59.74994 16.19104 16420 ft 391 kts 79°
2026-05-04 04:45 59.75502 16.24410 16001 ft 388 kts 79°
2026-05-04 04:45 59.75998 16.29615 15590 ft 385 kts 79°
2026-05-04 04:47 59.78849 16.60332 13181 ft 370 kts 80°
2026-05-04 04:47 59.79291 16.65290 12778 ft 367 kts 80°
2026-05-04 04:47 59.79734 16.70291 12372 ft 364 kts 80°
2026-05-04 04:47 59.80163 16.75178 11967 ft 361 kts 80°
2026-05-04 04:48 59.80594 16.80107 11560 ft 359 kts 80°
2026-05-04 04:49 59.82237 16.99290 10368 ft 338 kts 80°
2026-05-04 04:49 59.82618 17.03825 10283 ft 327 kts 80°
2026-05-04 04:49 59.82982 17.08190 10160 ft 318 kts 80°
2026-05-04 04:49 59.83338 17.12501 9910 ft 314 kts 80°
2026-05-04 04:50 59.83691 17.16800 9581 ft 314 kts 80°
2026-05-04 04:50 59.84037 17.21034 9260 ft 312 kts 80°
2026-05-04 04:50 59.84381 17.25289 8965 ft 309 kts 80°
2026-05-04 04:50 59.84607 17.28094 8753 ft 308 kts 80°
2026-05-04 04:51 59.84987 17.32853 8408 ft 306 kts 80°
2026-05-04 04:51 59.85314 17.36970 8124 ft 303 kts 80°
2026-05-04 04:51 59.85642 17.41118 7834 ft 301 kts 80°
2026-05-04 04:51 59.85960 17.45191 7546 ft 298 kts 80°
2026-05-04 04:52 59.86278 17.49279 7201 ft 298 kts 80°
2026-05-04 04:52 59.86572 17.53326 6830 ft 298 kts 83°
2026-05-04 04:52 59.86722 17.57459 6470 ft 298 kts 88°
2026-05-04 04:52 59.86697 17.61527 6242 ft 293 kts 93°
2026-05-04 04:53 59.86513 17.65545 5926 ft 291 kts 97°
2026-05-04 04:53 59.86268 17.69550 5539 ft 291 kts 97°
2026-05-04 04:53 59.86020 17.73512 5174 ft 290 kts 97°
2026-05-04 04:53 59.85774 17.77426 4839 ft 275 kts 97°
2026-05-04 04:54 59.85547 17.81039 4486 ft 257 kts 97°
2026-05-04 04:54 59.85328 17.84540 4150 ft 249 kts 97°
2026-05-04 04:54 59.85114 17.87888 3805 ft 244 kts 97°
2026-05-04 04:54 59.84893 17.91201 3465 ft 236 kts 97°
2026-05-04 04:55 59.84592 17.94418 3075 ft 238 kts 103°
2026-05-04 04:55 59.84082 17.97497 2861 ft 233 kts 117°
2026-05-04 04:55 59.82951 17.99726 2752 ft 233 kts 152°
2026-05-04 04:55 59.81396 18.00330 2659 ft 227 kts 187°
2026-05-04 04:56 59.80004 17.99200 2569 ft 211 kts 213°
2026-05-04 04:56 59.78787 17.97764 2547 ft 196 kts 206°
2026-05-04 04:56 59.77526 17.96745 2285 ft 197 kts 196°
2026-05-04 04:56 59.76654 17.96211 2127 ft 195 kts 195°
2026-05-04 04:57 59.75367 17.95553 1846 ft 186 kts 190°
2026-05-04 04:57 59.73737 17.94941 1455 ft 168 kts 187°
2026-05-04 04:57 59.72966 17.94659 1360 ft 171 kts 187°
2026-05-04 04:57 59.71808 17.94250 1198 ft 167 kts 186°
2026-05-04 04:58 59.70684 17.93842 967 ft 161 kts 189°
2026-05-04 04:58 59.69586 17.93442 758 ft 157 kts 187°
2026-05-04 04:58 59.68545 17.93068 560 ft 148 kts 189°
2026-05-04 04:58 59.67575 17.92713 332 ft 140 kts 189°
2026-05-04 04:59 59.66629 17.92372 170 ft 142 kts 188°
2026-05-04 04:59 59.65884 17.92101 118 ft 131 kts 190°
2026-05-04 04:59 59.65135 17.91831 109 ft 86 kts 190°
2026-05-04 04:59 59.64729 17.91686 111 ft 32 kts 190°
2026-05-04 05:00 59.64545 17.91617 114 ft 21 kts 190°
2026-05-04 05:00 59.64487 17.91597 111 ft 3 kts 187°
2026-05-04 05:00 59.64424 17.91695 110 ft 9 kts 105°
2026-05-04 05:01 59.64412 17.91814 115 ft 9 kts 100°
2026-05-04 05:01 59.64429 17.91923 112 ft 9 kts 44°
2026-05-04 05:01 59.64491 17.91958 112 ft 10 kts 11°
2026-05-04 05:01 59.64559 17.91983 113 ft 12 kts 11°
2026-05-04 05:02 59.64649 17.92019 114 ft 15 kts 11°
2026-05-04 05:02 59.64766 17.92061 110 ft 19 kts 10°
2026-05-04 05:02 59.64900 17.92111 109 ft 20 kts 10°
2026-05-04 05:02 59.65038 17.92159 109 ft 20 kts 10°
2026-05-04 05:03 59.65173 17.92209 109 ft 20 kts 10°
2026-05-04 05:03 59.65311 17.92258 110 ft 21 kts 10°
2026-05-04 05:04 59.65554 17.92795 112 ft 23 kts 76°
2026-05-04 05:04 59.65591 17.93097 112 ft 23 kts 76°
2026-05-04 05:04 59.65629 17.93404 113 ft 23 kts 76°
2026-05-04 05:06 59.65361 17.93953 115 ft 6 kts 204°
2026-05-04 05:06 59.65337 17.93890 115 ft 6 kts 242°
2026-05-04 05:06 59.65328 17.93852 112 ft 1 kts 246°
2026-05-04 05:07 59.65327 17.93845 112 ft 1 kts 247°
2026-05-04 05:07 59.65325 17.93838 112 ft 1 kts 247°
2026-05-04 05:07 59.65325 17.93837 112 ft 0 kts 247°